EW1179 Weather Reports


time (UTC)temp
C
wind
direction
speed
KPH
gust
KPH
rain 1hr
cm
rain 24hr
cm
rain mn
cm
humidity
%
barometer
mb
20260506191513 22 128 0.0 0.0 0.00 0.00 0.00 50 1016.6
20260506190008 22 283 0.0 4.8 0.00 0.00 0.00 53 1016.7
20260506184504 21 174 0.0 1.6 0.00 0.00 0.00 57 1017.0
20260506183001 21 245 0.0 3.2 0.00 0.00 0.00 58 1017.1
20260506181557 20 171 0.0 0.0 0.00 0.00 0.00 60 1017.3
20260506180054 20 60 0.0 0.0 0.00 0.00 0.00 62 1017.3
20260506174549 19 217 0.0 1.6 0.00 0.00 0.00 64 1017.5
20260506173100 18 75 0.0 0.0 0.00 0.00 0.00 67 1017.6
20260506171551 17 43 0.0 0.0 0.00 0.00 0.00 70 1017.7
20260506170036 16 98 0.0 0.0 0.00 0.00 0.00 74 1017.8
20260506164532 15 102 0.0 3.2 0.00 0.00 0.00 81 1018.1
20260506163038 13 19 0.0 1.6 0.00 0.00 0.00 87 1018.0
20260506161523 12 51 0.0 0.0 0.00 0.00 0.00 92 1018.2
20260506160022 11 59 0.0 0.0 0.00 0.00 0.00 93 1018.3
20260506154517 10 104 0.0 0.0 0.00 0.00 0.00 93 1018.5
20260506153010 10 103 0.0 0.0 0.00 0.00 0.00 93 1018.5
20260506151509 9 325 0.0 0.0 0.00 0.00 0.00 93 1018.6
20260506150007 9 27 0.0 0.0 0.00 0.00 0.00 93 1018.7
20260506144503 8 238 0.0 0.0 0.00 0.00 0.00 93 1018.6
20260506143100 8 32 0.0 0.0 0.00 0.00 0.00 93 1018.5
20260506141558 7 80 0.0 0.0 0.00 0.00 0.00 93 1018.3
20260506140101 7 294 0.0 0.0 0.00 0.00 0.00 92 1018.2
20260506134551 6 294 0.0 0.0 0.00 0.00 0.00 92 1018.0
20260506133051 6 294 0.0 0.0 0.00 0.00 0.00 91 1017.8
20260506131546 6 294 0.0 0.0 0.00 0.00 0.00 91 1017.8
20260506130049 6 294 0.0 0.0 0.00 0.00 0.00 91 1017.7
20260506124544 6 294 0.0 0.0 0.00 0.00 0.00 90 1017.5
20260506123043 6 294 0.0 0.0 0.00 0.00 0.00 90 1017.4
20260506121540 6 294 0.0 0.0 0.00 0.00 0.00 90 1017.3
20260506120039 6 294 0.0 0.0 0.00 0.00 0.00 90 1017.2
20260506114540 6 294 0.0 0.0 0.00 0.00 0.00 90 1017.0
20260506113037 6 294 0.0 0.0 0.00 0.00 0.00 90 1017.1
20260506111541 6 294 0.0 0.0 0.00 0.00 0.00 90 1017.2
20260506110036 6 294 0.0 0.0 0.00 0.00 0.00 90 1017.1
20260506104541 6 294 0.0 0.0 0.00 0.00 0.00 90 1017.1
20260506103034 6 294 0.0 0.0 0.00 0.00 0.00 89 1017.1
20260506101536 6 294 0.0 0.0 0.00 0.00 0.00 89 1017.1
20260506100030 6 294 0.0 0.0 0.00 0.00 0.00 89 1017.0
20260506094529 6 294 0.0 0.0 0.00 0.00 0.00 89 1016.9
20260506093045 7 294 0.0 0.0 0.00 0.00 0.00 89 1016.8
20260506091526 7 294 0.0 0.0 0.00 0.00 0.00 88 1016.8
20260506090025 7 294 0.0 0.0 0.00 0.00 0.00 88 1016.9
20260506084525 7 294 0.0 0.0 0.00 0.00 0.00 88 1016.9
20260506083023 7 294 0.0 0.0 0.00 0.00 0.00 88 1016.9
20260506081521 7 294 0.0 0.0 0.00 0.00 0.00 87 1016.8
20260506073015 8 294 0.0 0.0 0.00 0.00 0.00 86 1016.7
20260506071512 8 294 0.0 0.0 0.00 0.00 0.00 86 1016.5
20260506061508 9 294 0.0 0.0 0.00 0.00 0.00 84 1015.8
20260506044613 11 240 0.0 0.0 0.00 0.00 0.00 81 1015.1
20260506043056 11 230 0.0 0.0 0.00 0.00 0.00 80 1015.0
20260506041606 12 286 0.0 0.0 0.00 0.00 0.00 80 1014.7
20260506040056 12 289 0.0 0.0 0.00 0.00 0.00 79 1014.5
20260506034550 12 289 0.0 0.0 0.00 0.00 0.00 77 1014.3
20260506033052 12 93 0.0 0.0 0.00 0.00 0.00 77 1014.0
20260506031548 13 166 0.0 0.0 0.00 0.00 0.00 76 1013.7
20260506030045 13 261 0.0 0.0 0.00 0.00 0.00 75 1013.5
20260506024545 13 190 0.0 0.0 0.00 0.00 0.00 75 1013.3
20260506023053 13 203 0.0 3.2 0.00 0.00 0.00 76 1013.1
20260506021544 13 246 0.0 4.8 0.00 0.00 0.00 75 1012.9
20260506020111 13 244 0.0 9.7 0.00 0.00 0.00 75 1012.8
20260506014544 14 322 0.0 8.0 0.00 0.00 0.00 73 1012.9
20260506013043 15 252 0.0 1.6 0.00 0.00 0.00 72 1012.8
20260506011547 15 246 0.0 9.7 0.00 0.00 0.00 70 1012.8
20260506010042 15 205 0.0 3.2 0.00 0.00 0.00 68 1012.8
20260506004544 15 252 0.0 8.0 0.00 0.00 0.00 68 1012.8
20260506003041 15 245 0.0 8.0 0.00 0.00 0.00 68 1012.8
20260506001547 16 252 3.2 17.7 0.00 0.00 0.00 67 1012.8
20260506000055 16 236 1.6 9.7 0.00 0.00 0.00 66 1012.7
20260505234543 17 223 0.0 9.7 0.00 0.00 0.00 67 1012.7
20260505233040 17 200 3.2 11.3 0.00 0.00 0.00 64 1012.8
20260505231538 17 209 1.6 9.7 0.00 0.00 0.00 64 1012.8
20260505230045 17 229 0.0 9.7 0.00 0.00 0.00 63 1012.8
20260505224545 18 300 0.0 11.3 0.00 0.00 0.00 62 1013.0
20260505223039 18 219 1.6 9.7 0.00 0.00 0.00 62 1013.0
20260505221544 17 244 0.0 6.4 0.00 0.00 0.00 62 1013.1
20260505220034 18 200 1.6 9.7 0.00 0.00 0.00 60 1013.3
20260505214533 18 232 1.6 8.0 0.00 0.00 0.00 61 1013.4
20260505213032 17 205 0.0 9.7 0.00 0.00 0.00 63 1013.6
20260505211545 17 199 0.0 9.7 0.00 0.00 0.00 61 1013.7
20260505210030 17 190 1.6 8.0 0.00 0.00 0.00 61 1013.6
20260505204527 16 244 1.6 12.9 0.00 0.00 0.00 64 1013.7
20260505203029 17 211 0.0 12.9 0.00 0.00 0.00 64 1013.7
20260505201525 16 200 4.8 12.9 0.00 0.00 0.00 66 1013.7
20260505200025 17 315 0.0 6.4 0.00 0.00 0.00 64 1013.7
20260505194523 16 215 0.0 9.7 0.00 0.00 0.00 65 1013.7
20260505193022 16 212 0.0 1.6 0.00 0.00 0.00 64 1013.7